CW9533 Torre Faro Messina IT current weather conditions

sailwx.info

Wind from 066 at 3 knots gusting 8

Air temperature 16.1° C
Dewpoint 12.3° C

Last reported at 2015-Apr-18 22:37 UTC.
Time now 2015-Apr-18 23:34 UTC

Location: N 38°16' E 015°39'.
View on Google Maps.

See reports from other nearby stations

  
Tides and Currents Weather Stations Pressure Air Temp Water Temp Dewpoint Dewpoint Depression Visibility Wind Speed Wind Dir Waves Ship Positions
date/time (UTC)wind fromknots sea level pressurealtimeterstation pressurevisibilityair tempwater tempwave heightnotes
2015-Apr-18 22:37 066 3 gusting 8 16.1
2015-Apr-18 22:22 063 3 gusting 8 16.1
2015-Apr-18 22:07 063 6 gusting 9 16.1
2015-Apr-18 21:52 063 4 gusting 8 16.1
2015-Apr-18 21:37 053 4 gusting 8 15.6
2015-Apr-18 21:22 056 5 gusting 9 15.6
2015-Apr-18 21:07 057 5 gusting 10 15.6
2015-Apr-18 20:52 053 3 gusting 9 15.6
2015-Apr-18 20:37 052 4 gusting 9 16.1
2015-Apr-18 20:22 059 5 gusting 10 16.1
2015-Apr-18 20:07 059 5 gusting 9 16.7
2015-Apr-18 19:52 051 3 gusting 9 17.2
2015-Apr-18 19:37 055 4 gusting 9 17.8
2015-Apr-18 19:22 046 3 gusting 9 17.8
2015-Apr-18 19:07 050 4 gusting 10 17.8
2015-Apr-18 18:52 042 5 gusting 11 17.8
2015-Apr-18 18:37 057 2 gusting 10 17.2
2015-Apr-18 18:22 072 4 gusting 14 17.2
2015-Apr-18 18:07 049 7 gusting 13 17.2
2015-Apr-18 17:52 056 5 gusting 11 17.8
2015-Apr-18 17:37 029 3 gusting 11 18.3
2015-Apr-18 17:24 033 3 gusting 12 17.8
2015-Apr-18 17:07 057 5 gusting 13 17.2
2015-Apr-18 16:52 068 6 gusting 11 18.3
2015-Apr-18 16:37 027 7 gusting 13 18.3
2015-Apr-18 16:22 053 8 gusting 12 18.3
2015-Apr-18 16:07 030 6 gusting 12 18.9
2015-Apr-18 15:52 049 6 gusting 12 18.9
2015-Apr-18 15:37 028 6 gusting 12 18.9
2015-Apr-18 15:22 042 5 gusting 14 19.4
2015-Apr-18 15:07 034 8 gusting 13 19.4
2015-Apr-18 14:52 055 7 gusting 13 19.4
2015-Apr-18 14:37 057 7 gusting 16 18.9
2015-Apr-18 14:22 051 6 gusting 13 19.4
2015-Apr-18 14:07 067 6 gusting 15 19.4
2015-Apr-18 13:52 074 7 gusting 13 19.4
2015-Apr-18 13:37 067 6 gusting 15 19.4
2015-Apr-18 13:22 075 6 gusting 19 18.9
2015-Apr-18 13:07 073 6 gusting 14 19.4
2015-Apr-18 12:52 061 7 gusting 13 19.4
2015-Apr-18 12:37 071 6 gusting 14 19.4
2015-Apr-18 12:22 071 5 gusting 13 20.0
2015-Apr-18 12:07 065 6 gusting 12 20.0
2015-Apr-18 11:52 067 4 gusting 11 20.6
2015-Apr-18 11:37 055 6 gusting 13 20.0
2015-Apr-18 11:22 053 6 gusting 12 20.0
2015-Apr-18 11:07 065 5 gusting 11 20.0
2015-Apr-18 10:52 075 4 gusting 11 19.4
2015-Apr-18 10:37 049 5 gusting 12 18.9
2015-Apr-18 10:22 056 5 gusting 13 18.3
2015-Apr-18 10:07 080 7 gusting 18 18.9
2015-Apr-18 09:52 047 6 gusting 13 18.9
2015-Apr-18 09:37 061 7 gusting 14 18.9
2015-Apr-18 09:22 040 6 gusting 12 20.0
2015-Apr-18 09:07 051 6 gusting 10 19.4
2015-Apr-18 08:51 024 7 gusting 14 18.9
2015-Apr-18 08:36 062 7 gusting 16 18.3
2015-Apr-18 08:21 022 9 gusting 14 17.8
2015-Apr-18 08:06 051 6 gusting 12 17.8
2015-Apr-18 07:51 060 6 gusting 13 17.8
2015-Apr-18 07:36 053 7 gusting 12 17.2
2015-Apr-18 07:21 058 6 gusting 14 17.8
2015-Apr-18 07:06 030 4 gusting 11 17.8
2015-Apr-18 06:51 073 6 gusting 12 17.8
2015-Apr-18 06:36 064 6 gusting 11 17.8
2015-Apr-18 06:21 050 6 gusting 14 17.2
2015-Apr-18 06:06 063 6 gusting 12 16.7
2015-Apr-18 05:51 044 7 gusting 13 16.7
2015-Apr-18 05:36 055 6 gusting 10 16.1
2015-Apr-18 05:21 071 5 gusting 9 16.1
2015-Apr-18 05:06 067 6 gusting 13 16.1
2015-Apr-18 04:51 059 6 gusting 9 16.1
2015-Apr-18 04:36 062 5 gusting 10 16.1
2015-Apr-18 04:21 055 4 gusting 9 15.6
2015-Apr-18 04:06 050 5 gusting 10 15.6
2015-Apr-18 03:51 059 4 gusting 9 15.6
2015-Apr-18 03:36 062 4 gusting 9 15.6
2015-Apr-18 03:21 068 5 gusting 10 16.1
2015-Apr-18 03:06 077 6 gusting 12 16.1
2015-Apr-18 02:51 084 6 gusting 13 16.1
2015-Apr-18 02:36 065 8 gusting 14 16.7
2015-Apr-18 02:21 056 7 gusting 14 16.7
2015-Apr-18 02:06 078 6 gusting 15 16.7
2015-Apr-18 01:51 056 7 gusting 12 16.7
2015-Apr-18 01:36 057 7 gusting 13 16.7
2015-Apr-18 01:21 039 5 gusting 11 16.7
2015-Apr-18 01:06 066 6 gusting 10 16.7
2015-Apr-18 00:51 065 7 gusting 12 16.7
2015-Apr-18 00:36 065 6 gusting 11 17.2
2015-Apr-18 00:21 048 6 gusting 12 17.2
2015-Apr-18 00:06 065 4 gusting 10 17.2
2015-Apr-17 23:50 067 3 gusting 8 16.7
2015-Apr-17 23:35 061 3 gusting 7 16.7
2015-Apr-17 23:20 061 5 gusting 9 16.1
2015-Apr-17 23:05 067 5 gusting 10 16.1
2015-Apr-17 22:50 063 5 gusting 10 16.1
2015-Apr-17 22:35 067 5 gusting 9 16.1
2015-Apr-17 22:20 068 4 gusting 9 15.6
2015-Apr-17 22:05 213 2 gusting 6 15.6
2015-Apr-17 21:50 214 2 gusting 6 15.6
2015-Apr-17 21:35 213 2 gusting 5 15.6
2015-Apr-17 21:20 213 0 gusting 2 15.6
2015-Apr-17 21:05 213 15.6
2015-Apr-17 20:50 213 15.6
2015-Apr-17 20:35 212 15.6
2015-Apr-17 20:20 213 15.6
2015-Apr-17 20:05 213 15.6
2015-Apr-17 19:50 213 0 gusting 4 15.6
2015-Apr-17 19:35 213 0 gusting 5 15.6
2015-Apr-17 19:20 213 1 gusting 5 15.6
2015-Apr-17 19:05 213 1 gusting 5 15.6
2015-Apr-17 18:50 213 4 gusting 6 15.6
2015-Apr-17 18:35 213 3 gusting 7 15.6
2015-Apr-17 18:20 213 5 gusting 8 15.6
2015-Apr-17 18:05 211 4 gusting 8 15.6
2015-Apr-17 17:50 211 4 gusting 8 16.1
2015-Apr-17 17:35 212 4 gusting 7 16.1
2015-Apr-17 17:20 212 1 gusting 6 16.1
2015-Apr-17 17:05 213 5 gusting 9 16.1
2015-Apr-17 16:50 215 6 gusting 12 16.7
2015-Apr-17 16:35 211 6 gusting 13 16.7
2015-Apr-17 16:20 209 5 gusting 10 17.2
2015-Apr-17 16:05 211 6 gusting 13 17.2
2015-Apr-17 15:50 217 6 gusting 13 17.2
2015-Apr-17 15:35 219 6 gusting 11 17.8
2015-Apr-17 15:20 217 9 gusting 15 17.8
2015-Apr-17 15:05 213 9 gusting 14 17.8
2015-Apr-17 14:50 219 7 gusting 13 17.8
2015-Apr-17 14:35 225 6 gusting 16 17.8
2015-Apr-17 14:20 221 9 gusting 13 17.8
2015-Apr-17 14:05 214 6 gusting 15 17.2
2015-Apr-17 13:50 211 8 gusting 16 17.2
2015-Apr-17 13:35 207 10 gusting 16 17.2
2015-Apr-17 13:20 216 11 gusting 16 17.2
2015-Apr-17 13:05 209 11 gusting 15 17.8
2015-Apr-17 12:50 211 11 gusting 15 18.3
2015-Apr-17 12:35 227 8 gusting 19 18.3
2015-Apr-17 12:20 225 11 gusting 17 17.8
2015-Apr-17 12:05 218 12 gusting 17 18.3
2015-Apr-17 11:50 202 10 gusting 19 18.9
2015-Apr-17 11:35 220 12 gusting 19 17.8
2015-Apr-17 11:20 215 10 gusting 18 17.8
2015-Apr-17 11:05 231 12 gusting 18 17.8
2015-Apr-17 10:50 206 11 gusting 19 18.3
2015-Apr-17 10:35 227 12 gusting 19 18.3
2015-Apr-17 10:20 216 8 gusting 13 18.3
2015-Apr-17 10:05 215 6 gusting 13 17.2
2015-Apr-17 09:50 215 8 gusting 14 17.2
2015-Apr-17 09:35 207 8 gusting 13 17.8
2015-Apr-17 09:20 212 3 gusting 10 18.3
2015-Apr-17 09:04 217 8 gusting 14 17.8
2015-Apr-17 08:49 223 7 gusting 14 17.2
2015-Apr-17 08:34 213 6 gusting 12 16.7
2015-Apr-17 08:19 215 7 gusting 12 16.7
2015-Apr-17 08:04 206 3 gusting 8 16.7
2015-Apr-17 07:49 200 4 gusting 9 16.1
2015-Apr-17 07:34 185 4 gusting 8 16.1
2015-Apr-17 07:19 166 4 gusting 7 16.1
2015-Apr-17 07:04 160 1 gusting 6 15.6
2015-Apr-17 06:49 131 3 gusting 7 16.1
2015-Apr-17 06:34 109 1 gusting 8 16.1
2015-Apr-17 06:19 104 0 gusting 7 15.6
2015-Apr-17 06:04 069 1 gusting 6 15.6
2015-Apr-17 05:49 055 0 gusting 5 15.0
2015-Apr-17 05:34 055 14.4
2015-Apr-17 05:19 055 0 gusting 4 14.4
2015-Apr-17 05:04 055 13.9
2015-Apr-17 04:49 055 0 gusting 3 13.9
2015-Apr-17 04:34 055 13.9
2015-Apr-17 04:19 055 13.9
2015-Apr-17 04:04 056 0 gusting 3 13.9
2015-Apr-17 03:49 056 0 gusting 3 14.4
2015-Apr-17 03:34 055 14.4
2015-Apr-17 03:19 055 14.4
2015-Apr-17 03:04 055 14.4
2015-Apr-17 02:49 055 0 gusting 4 14.4
2015-Apr-17 02:34 055 14.4
2015-Apr-17 02:19 055 0 gusting 2 14.4
2015-Apr-17 02:04 055 14.4
2015-Apr-17 01:49 055 15.0
2015-Apr-17 01:34 055 15.0
2015-Apr-17 01:19 055 15.0
2015-Apr-17 01:06 055 15.0
2015-Apr-17 00:49 055 15.0
2015-Apr-17 00:34 056 15.0
2015-Apr-17 00:19 057 15.6
2015-Apr-17 00:04 056 15.6
2015-Apr-16 23:49 055 15.6
2015-Apr-16 23:34 055 15.0
2015-Apr-16 23:19 055 15.0
2015-Apr-16 23:04 055 15.0